This is the latest recevied weather packets stored in our database for station/object F4BQN-15. If no packets are shown the sender has not sent any weather packets the latest 10 day(s).
| Time | Temp. | Humidity | Pressure | Rain* | Wind** | Luminosity | Snow |
|---|---|---|---|---|---|---|---|
| 1777545041 | 25.56° C | 26% | 989.8 hPa | - | - | - | - |
| 1777544140 | 25.56° C | 25% | 989.8 hPa | - | - | - | - |
| 1777543240 | 25° C | 26% | 989.7 hPa | - | - | - | - |
| 1777542340 | 24.44° C | 26% | 989.7 hPa | - | - | - | - |
| 1777541440 | 23.89° C | 26% | 989.8 hPa | - | - | - | - |
| 1777540540 | 23.33° C | 27% | 989.7 hPa | - | - | - | - |
| 1777539639 | 22.78° C | 26% | 989.6 hPa | - | - | - | - |
| 1777538739 | 22.78° C | 27% | 989.3 hPa | - | - | - | - |
| 1777537839 | 22.22° C | 27% | 989.4 hPa | - | - | - | - |
| 1777536939 | 22.22° C | 27% | 989.2 hPa | - | - | - | - |
| 1777536039 | 22.78° C | 27% | 988.9 hPa | - | - | - | - |
| 1777535139 | 22.22° C | 26% | 988.7 hPa | - | - | - | - |
| 1777534239 | 22.22° C | 26% | 988.5 hPa | - | - | - | - |
| 1777533339 | 21.67° C | 26% | 988.3 hPa | - | - | - | - |
| 1777532439 | 21.67° C | 26% | 988.1 hPa | - | - | - | - |
| 1777531539 | 21.11° C | 26% | 988 hPa | - | - | - | - |
| 1777530638 | 21.11° C | 26% | 987.8 hPa | - | - | - | - |
| 1777529738 | 21.11° C | 26% | 987.9 hPa | - | - | - | - |
| 1777528838 | 21.11° C | 26% | 987.7 hPa | - | - | - | - |
| 1777527937 | 20.56° C | 27% | 987.5 hPa | - | - | - | - |
| 1777527922 | 20.56° C | 27% | 987.6 hPa | - | - | - | - |
| 1777527887 | 20.56° C | 27% | 987.5 hPa | - | - | - | - |
| 1777527852 | 20.56° C | 27% | 987.5 hPa | - | - | - | - |
| 1777527818 | 20.56° C | 27% | 987.5 hPa | - | - | - | - |
| 1777527747 | 20.56° C | 27% | 987.5 hPa | - | - | - | - |
* Rain since midnight (hover to see other rain measurements)
** Current wind speed in m/s (hover to see current wind gust speed)